Tracking 29892 objects as of 21-Nov-2024
HD Live streaming from Space Station
objects crossing your sky now

ONEWEB-0332

Track ONEWEB-0332 now!
10-day predictions
ONEWEB-0332 is classified as:


NORAD ID: 49279
Int'l Code: 2021-090A
Perigee: 1,211.5 km
Apogee: 1,214.4 km
Inclination: 87.9 °
Period: 109.5 minutes
Semi major axis: 7583 km
RCS: Unknown
Launch date: October 14, 2021
Source: United Kingdom (UK)
Launch site: VOSTOCHNY COSMODROME (VOSTO)
Your satellite tracking list
FENGYUN 1C DEB
Track 1 satellite(s)




NASA's NSSDC Master Catalog

Two Line Element Set (TLE):
1 49279U 21090A   24324.75771242  .00000051  00000-0  10325-3 0  9993
2 49279  87.9028  43.9495 0001944  92.8243 267.3109 13.14504150152119
Source of the keplerian elements: AFSPC